,,,PA_Meas_PMT16A,,PR_Meas_QMR101_102,,RH_Meas_QMH101,,SR_Meas_QMS101,,TA_Meas_QMH101,,GenWind,,GenWind,
date,time,status,PA,status,PR,status,RH,status,SR,status,TA,status,DirAvg,status,SpdAvg,
2009-05-21, 00:00:04,VALID,1004.34,VALID,0,VALID,91.6534,VALID,0,VALID,23.7425,VALID,261,VALID,1.50156,
2009-05-21, 00:01:04,VALID,1004.26,VALID,0,VALID,91.6991,VALID,0.100563,VALID,23.7017,VALID,294,VALID,2.03164,
2009-05-21, 00:02:04,VALID,1004.26,VALID,0,VALID,91.8441,VALID,0,VALID,23.7035,VALID,220,VALID,1.13789,
2009-05-21, 00:03:04,VALID,1004.24,VALID,0,VALID,92.0348,VALID,0,VALID,23.7035,VALID,293,VALID,0.958203,
2009-05-21, 00:04:04,VALID,1004.21,VALID,0,VALID,92.1492,VALID,0.100563,VALID,23.6646,VALID,319,VALID,0.903516,
2009-05-21, 00:05:04,VALID,1004.14,VALID,0,VALID,92.2789,VALID,0,VALID,23.6646,VALID,27,VALID,0.959375,
2009-05-21, 00:06:04,VALID,1004.11,VALID,0,VALID,92.2408,VALID,0.100563,VALID,23.6239,VALID,282,VALID,1.9582,
2009-05-21, 00:07:04,VALID,1004.06,VALID,0,VALID,92.195,VALID,0.100563,VALID,23.6239,VALID,291,VALID,0.871875,
2009-05-21, 00:08:04,VALID,1004.05,VALID,0,VALID,91.9967,VALID,0,VALID,23.5832,VALID,285,VALID,2.41289,
2009-05-21, 00:09:04,VALID,1003.96,VALID,0,VALID,91.8975,VALID,0.100563,VALID,23.585,VALID,273,VALID,2.12656,
2009-05-21, 00:10:04,VALID,1003.98,VALID,0,VALID,91.9204,VALID,0,VALID,23.6044,VALID,330,VALID,1.43281,
2009-05-21, 00:11:04,VALID,1003.93,VALID,0,VALID,91.5084,VALID,0.100563,VALID,23.5637,VALID,316,VALID,2.57383,
2009-05-21, 00:12:04,VALID,1003.84,VALID,0,VALID,91.5008,VALID,0.100563,VALID,23.6044,VALID,319,VALID,1.69375,
2009-05-21, 00:13:04,VALID,1003.91,VALID,0,VALID,91.5161,VALID,0,VALID,23.6239,VALID,327,VALID,1.28555,
2009-05-21, 00:14:04,VALID,1003.85,VALID,0,VALID,91.4932,VALID,0.100563,VALID,23.6044,VALID,302,VALID,1.91875,
2009-05-21, 00:15:04,VALID,1003.86,VALID,0,VALID,91.5618,VALID,0,VALID,23.6044,VALID,301,VALID,1.85117,
2009-05-21, 00:16:04,VALID,1003.79,VALID,0,VALID,91.5923,VALID,0,VALID,23.585,VALID,337,VALID,1.33594,
2009-05-21, 00:17:04,VALID,1003.8,VALID,0,VALID,91.6,VALID,0.100563,VALID,23.6062,VALID,288,VALID,1.93984,
2009-05-21, 00:18:04,VALID,1003.76,VALID,0,VALID,91.5313,VALID,0,VALID,23.5655,VALID,289,VALID,2.34727,
2009-05-21, 00:19:04,VALID,1003.75,VALID,0.5,VALID,91.6152,VALID,0.100563,VALID,23.585,VALID,341,VALID,1.77578,
2009-05-21, 00:20:04,VALID,1003.77,VALID,0,VALID,91.722,VALID,0,VALID,23.5655,VALID,326,VALID,1.03047,
2009-05-21, 00:21:04,VALID,1003.76,VALID,0,VALID,91.7907,VALID,0,VALID,23.5266,VALID,308,VALID,2.67227,
2009-05-21, 00:22:04,VALID,1003.78,VALID,0,VALID,91.7831,VALID,0,VALID,23.5071,VALID,310,VALID,2.67461,
2009-05-21, 00:23:04,VALID,1003.8,VALID,0,VALID,92.0348,VALID,0,VALID,23.5266,VALID,283,VALID,1.69805,
2009-05-21, 00:24:04,VALID,1003.79,VALID,0.5,VALID,92.1264,VALID,0,VALID,23.4894,VALID,275,VALID,1.51055,
2009-05-21, 00:25:04,VALID,1003.77,VALID,0,VALID,92.2179,VALID,0,VALID,23.4505,VALID,292,VALID,3.52344,
2009-05-21, 00:26:04,VALID,1003.79,VALID,0,VALID,92.34,VALID,0,VALID,23.4293,VALID,276,VALID,2.49414,
2009-05-21, 00:27:04,VALID,1003.79,VALID,0,VALID,92.5002,VALID,0,VALID,23.4098,VALID,300,VALID,1.33203,
2009-05-21, 00:28:04,VALID,1003.81,VALID,0,VALID,92.5841,VALID,0.100563,VALID,23.4098,VALID,274,VALID,2.69375,
2009-05-21, 00:29:04,VALID,1003.8,VALID,0.5,VALID,92.6756,VALID,0,VALID,23.3727,VALID,295,VALID,2.31016,
2009-05-21, 00:30:04,VALID,1003.88,VALID,0,VALID,92.8282,VALID,0,VALID,23.332,VALID,283,VALID,1.29961,
2009-05-21, 00:31:04,VALID,1003.91,VALID,0,VALID,92.9198,VALID,0,VALID,23.2931,VALID,287,VALID,3.05664,
2009-05-21, 00:32:04,VALID,1003.92,VALID,0.5,VALID,92.9655,VALID,0,VALID,23.2754,VALID,305,VALID,3.27852,
2009-05-21, 00:33:04,VALID,1003.91,VALID,0,VALID,93.1029,VALID,0,VALID,23.2347,VALID,299,VALID,1.94258,
2009-05-21, 00:34:04,VALID,1003.92,VALID,0,VALID,93.1868,VALID,0,VALID,23.1957,VALID,281,VALID,1.71914,
2009-05-21, 00:35:04,VALID,1003.97,VALID,0,VALID,93.3088,VALID,0,VALID,23.1975,VALID,287,VALID,2.21953,
2009-05-21, 00:36:04,VALID,1003.96,VALID,0.5,VALID,93.347,VALID,0,VALID,23.178,VALID,311,VALID,1.60234,
2009-05-21, 00:37:04,VALID,1003.93,VALID,0,VALID,93.4156,VALID,0,VALID,23.1179,VALID,337,VALID,2.02227,
2009-05-21, 00:38:04,VALID,1003.94,VALID,0,VALID,93.2936,VALID,0.100563,VALID,23.079,VALID,295,VALID,2.04336,
2009-05-21, 00:39:04,VALID,1003.9,VALID,0,VALID,93.4233,VALID,0,VALID,23.0807,VALID,289,VALID,2.51914,
2009-05-21, 00:40:04,VALID,1003.91,VALID,0.5,VALID,93.4233,VALID,0,VALID,23.0206,VALID,279,VALID,3.06602,
2009-05-21, 00:41:04,VALID,1003.95,VALID,0,VALID,93.4996,VALID,0.100563,VALID,23.0224,VALID,291,VALID,2.41094,
2009-05-21, 00:42:04,VALID,1003.93,VALID,0,VALID,93.5072,VALID,0,VALID,22.9817,VALID,298,VALID,2.05391,
2009-05-21, 00:43:04,VALID,1003.93,VALID,0,VALID,93.614,VALID,0,VALID,22.9622,VALID,284,VALID,0.483984,
2009-05-21, 00:44:04,VALID,1003.87,VALID,0.5,VALID,93.7055,VALID,0,VALID,22.964,VALID,322,VALID,0.453125,
2009-05-21, 00:45:04,VALID,1003.88,VALID,0,VALID,93.8123,VALID,0,VALID,22.9233,VALID,261,VALID,1.05859,
2009-05-21, 00:46:04,VALID,1003.87,VALID,0,VALID,93.8734,VALID,0,VALID,22.9039,VALID,294,VALID,1.53125,
2009-05-21, 00:47:04,VALID,1003.84,VALID,0,VALID,93.9649,VALID,0,VALID,22.9251,VALID,296,VALID,1.16328,
2009-05-21, 00:48:04,VALID,1003.83,VALID,0.5,VALID,94.0565,VALID,0,VALID,22.9251,VALID,323,VALID,1.06367,
2009-05-21, 00:49:04,VALID,1003.82,VALID,0,VALID,94.1175,VALID,0,VALID,22.8844,VALID,302,VALID,1.62266,
2009-05-21, 00:50:04,VALID,1003.78,VALID,0,VALID,94.1938,VALID,0,VALID,22.8844,VALID,295,VALID,1.5625,
2009-05-21, 00:51:04,VALID,1003.77,VALID,0,VALID,94.2243,VALID,0,VALID,22.8844,VALID,298,VALID,0.883984,
2009-05-21, 00:52:04,VALID,1003.76,VALID,0,VALID,94.3158,VALID,0,VALID,22.8649,VALID,311,VALID,1.20234,
2009-05-21, 00:53:04,VALID,1003.73,VALID,0.5,VALID,94.3845,VALID,0,VALID,22.8844,VALID,277,VALID,1.15117,
2009-05-21, 00:54:04,VALID,1003.71,VALID,0,VALID,94.4303,VALID,0,VALID,22.8844,VALID,282,VALID,0.931641,
2009-05-21, 00:55:04,VALID,1003.71,VALID,0,VALID,94.4608,VALID,0,VALID,22.8844,VALID,314,VALID,0.726953,
2009-05-21, 00:56:04,VALID,1003.65,VALID,0,VALID,94.5218,VALID,0,VALID,22.8844,VALID,357,VALID,0.974609,
2009-05-21, 00:57:04,VALID,1003.63,VALID,0,VALID,94.5523,VALID,0,VALID,22.9268,VALID,238,VALID,0.529297,
2009-05-21, 00:58:04,VALID,1003.58,VALID,0,VALID,94.5829,VALID,0,VALID,22.9039,VALID,333,VALID,0.617969,
2009-05-21, 00:59:04,VALID,1003.58,VALID,0.5,VALID,94.6057,VALID,0.100563,VALID,22.9039,VALID,343,VALID,1.06641,
2009-05-21, 01:00:04,VALID,1003.53,VALID,0,VALID,94.621,VALID,0,VALID,22.9039,VALID,291,VALID,1.12578,
2009-05-21, 01:01:04,VALID,1003.5,VALID,0,VALID,94.6363,VALID,0,VALID,22.9056,VALID,48,VALID,0.375781,
2009-05-21, 01:02:04,VALID,1003.44,VALID,0,VALID,94.6973,VALID,0,VALID,22.9039,VALID,341,VALID,0.348047,
2009-05-21, 01:03:04,VALID,1003.42,VALID,0,VALID,94.7202,VALID,0,VALID,22.8844,VALID,356,VALID,0.672656,
2009-05-21, 01:04:04,VALID,1003.35,VALID,0,VALID,94.7431,VALID,0,VALID,22.9056,VALID,350,VALID,1.58008,
2009-05-21, 01:05:04,VALID,1003.35,VALID,0,VALID,94.7583,VALID,0,VALID,22.9039,VALID,321,VALID,0.479688,
2009-05-21, 01:06:04,VALID,1003.32,VALID,0,VALID,94.7507,VALID,0,VALID,22.8844,VALID,298,VALID,1.39414,
2009-05-21, 01:07:04,VALID,1003.34,VALID,0.5,VALID,94.766,VALID,0,VALID,22.8649,VALID,281,VALID,0.524609,
2009-05-21, 01:08:04,VALID,1003.34,VALID,0,VALID,94.7965,VALID,0,VALID,22.8861,VALID,307,VALID,1.36602,
2009-05-21, 01:09:04,VALID,1003.36,VALID,0,VALID,94.7965,VALID,0,VALID,22.8861,VALID,330,VALID,0.676562,
2009-05-21, 01:10:04,VALID,1003.33,VALID,0,VALID,94.7507,VALID,0,VALID,22.8455,VALID,283,VALID,1.18516,
2009-05-21, 01:11:04,VALID,1003.31,VALID,0,VALID,94.7812,VALID,0.100563,VALID,22.8455,VALID,281,VALID,1.40313,
2009-05-21, 01:12:04,VALID,1003.3,VALID,0,VALID,94.7583,VALID,0,VALID,22.826,VALID,301,VALID,0.765234,
2009-05-21, 01:13:04,VALID,1003.3,VALID,0,VALID,94.7812,VALID,0.100563,VALID,22.826,VALID,305,VALID,1.43008,
2009-05-21, 01:14:04,VALID,1003.31,VALID,0,VALID,94.766,VALID,0,VALID,22.8066,VALID,292,VALID,1.5707,
2009-05-21, 01:15:04,VALID,1003.31,VALID,0,VALID,94.7507,VALID,0.100563,VALID,22.7871,VALID,4,VALID,0.914063,
2009-05-21, 01:16:04,VALID,1003.27,VALID,0,VALID,94.7354,VALID,0,VALID,22.8066,VALID,320,VALID,1.1375,
2009-05-21, 01:17:04,VALID,1003.29,VALID,0,VALID,94.7583,VALID,0,VALID,22.8278,VALID,344,VALID,1.3582,
2009-05-21, 01:18:04,VALID,1003.32,VALID,0,VALID,94.7125,VALID,0,VALID,22.8066,VALID,292,VALID,1.85195,
2009-05-21, 01:19:04,VALID,1003.34,VALID,0,VALID,94.6973,VALID,0,VALID,22.8278,VALID,304,VALID,1.15195,
2009-05-21, 01:20:04,VALID,1003.34,VALID,0,VALID,94.7278,VALID,0.100563,VALID,22.8066,VALID,298,VALID,0.986719,
2009-05-21, 01:21:04,VALID,1003.35,VALID,0,VALID,94.7507,VALID,0.100563,VALID,22.7871,VALID,283,VALID,1.69375,
2009-05-21, 01:22:04,VALID,1003.35,VALID,0,VALID,94.682,VALID,0,VALID,22.8066,VALID,303,VALID,1.85938,
2009-05-21, 01:23:04,VALID,1003.36,VALID,0,VALID,94.6744,VALID,0,VALID,22.7871,VALID,283,VALID,0.966016,
2009-05-21, 01:24:04,VALID,1003.38,VALID,0,VALID,94.7049,VALID,0,VALID,22.7871,VALID,296,VALID,0.861328,
2009-05-21, 01:25:04,VALID,1003.36,VALID,0,VALID,94.7125,VALID,0,VALID,22.7871,VALID,297,VALID,0.645703,
2009-05-21, 01:26:04,VALID,1003.36,VALID,0.5,VALID,94.7202,VALID,0,VALID,22.7871,VALID,282,VALID,0.921875,
2009-05-21, 01:27:04,VALID,1003.36,VALID,0,VALID,94.7354,VALID,0,VALID,22.7888,VALID,352,VALID,1.09687,
2009-05-21, 01:28:04,VALID,1003.33,VALID,0,VALID,94.766,VALID,0,VALID,22.7888,VALID,327,VALID,0.35,
2009-05-21, 01:29:04,VALID,1003.35,VALID,0,VALID,94.7354,VALID,0,VALID,22.7888,VALID,346,VALID,1.35781,
2009-05-21, 01:30:04,VALID,1003.37,VALID,0,VALID,94.766,VALID,0,VALID,22.7871,VALID,305,VALID,1.02148,
2009-05-21, 01:31:04,VALID,1003.41,VALID,0,VALID,94.7736,VALID,0,VALID,22.81,VALID,352,VALID,0.925,
2009-05-21, 01:32:04,VALID,1003.39,VALID,0,VALID,94.7583,VALID,0,VALID,22.7888,VALID,310,VALID,0.808984,
2009-05-21, 01:33:04,VALID,1003.41,VALID,0,VALID,94.7583,VALID,0,VALID,22.81,VALID,315,VALID,0.809375,
2009-05-21, 01:34:04,VALID,1003.41,VALID,0,VALID,94.7583,VALID,0,VALID,22.7888,VALID,303,VALID,0.830469,
2009-05-21, 01:35:04,VALID,1003.43,VALID,0,VALID,94.766,VALID,0,VALID,22.81,VALID,360,VALID,0.327344,
2009-05-21, 01:36:04,VALID,1003.43,VALID,0,VALID,94.7888,VALID,0,VALID,22.8083,VALID,14,VALID,0.470703,
2009-05-21, 01:37:04,VALID,1003.46,VALID,0.5,VALID,94.7354,VALID,0,VALID,22.7888,VALID,305,VALID,0.533203,
2009-05-21, 01:38:04,VALID,1003.47,VALID,0,VALID,94.7278,VALID,0,VALID,22.7906,VALID,306,VALID,1.41953,
2009-05-21, 01:39:04,VALID,1003.48,VALID,0,VALID,94.7812,VALID,0,VALID,22.7888,VALID,354,VALID,0.583984,
2009-05-21, 01:40:04,VALID,1003.48,VALID,0,VALID,94.8041,VALID,0,VALID,22.7888,VALID,319,VALID,0.322266,
2009-05-21, 01:41:04,VALID,1003.5,VALID,0,VALID,94.7125,VALID,0,VALID,22.7694,VALID,321,VALID,1.08203,
2009-05-21, 01:42:04,VALID,1003.51,VALID,0,VALID,94.7278,VALID,0,VALID,22.7482,VALID,288,VALID,0.835547,
2009-05-21, 01:43:04,VALID,1003.55,VALID,0,VALID,94.7431,VALID,0,VALID,22.727,VALID,321,VALID,0.732422,
2009-05-21, 01:44:04,VALID,1003.54,VALID,0,VALID,94.7125,VALID,0,VALID,22.7482,VALID,293,VALID,0.991406,
2009-05-21, 01:45:04,VALID,1003.54,VALID,0,VALID,94.7507,VALID,0.100563,VALID,22.7677,VALID,289,VALID,0.713672,
2009-05-21, 01:46:04,VALID,1003.52,VALID,0,VALID,94.7736,VALID,0,VALID,22.7677,VALID,353,VALID,1.02461,
2009-05-21, 01:47:04,VALID,1003.53,VALID,0,VALID,94.7507,VALID,0.100563,VALID,22.7677,VALID,321,VALID,0.608594,
2009-05-21, 01:48:04,VALID,1003.53,VALID,0,VALID,94.7354,VALID,0.100563,VALID,22.7871,VALID,328,VALID,0.21875,
2009-05-21, 01:49:04,VALID,1003.54,VALID,0,VALID,94.7431,VALID,0.100563,VALID,22.8083,VALID,282,VALID,0.946094,
2009-05-21, 01:50:04,VALID,1003.54,VALID,0,VALID,94.7431,VALID,0.100563,VALID,22.7871,VALID,293,VALID,0.286719,
2009-05-21, 01:51:04,VALID,1003.54,VALID,0,VALID,94.6973,VALID,0,VALID,22.7677,VALID,301,VALID,0.988672,
2009-05-21, 01:52:04,VALID,1003.54,VALID,0,VALID,94.6973,VALID,0,VALID,22.7482,VALID,337,VALID,0.589063,
2009-05-21, 01:53:04,VALID,1003.52,VALID,0,VALID,94.7202,VALID,0,VALID,22.7677,VALID,347,VALID,0.3125,
2009-05-21, 01:54:04,VALID,1003.5,VALID,0,VALID,94.7583,VALID,0,VALID,22.7677,VALID,350,VALID,0.414844,
2009-05-21, 01:55:04,VALID,1003.51,VALID,0,VALID,94.7507,VALID,0,VALID,22.8083,VALID,350,VALID,0.362109,
2009-05-21, 01:56:04,VALID,1003.45,VALID,0,VALID,94.7431,VALID,0,VALID,22.7871,VALID,2,VALID,0.523828,
2009-05-21, 01:57:04,VALID,1003.45,VALID,0,VALID,94.7354,VALID,0,VALID,22.7888,VALID,228,VALID,0.439453,
2009-05-21, 01:58:04,VALID,1003.43,VALID,0,VALID,94.7278,VALID,0,VALID,22.7871,VALID,6,VALID,0.917188,
2009-05-21, 01:59:04,VALID,1003.4,VALID,0,VALID,94.6744,VALID,0,VALID,22.7677,VALID,351,VALID,1.10078,
2009-05-21, 02:00:04,VALID,1003.4,VALID,0,VALID,94.7049,VALID,0.100563,VALID,22.7677,VALID,355,VALID,0.516797,
2009-05-21, 02:01:04,VALID,1003.36,VALID,0,VALID,94.766,VALID,0,VALID,22.7677,VALID,355,VALID,0.137109,
2009-05-21, 02:02:04,VALID,1003.41,VALID,0,VALID,94.7507,VALID,0,VALID,22.7677,VALID,349,VALID,0.502734,
2009-05-21, 02:03:04,VALID,1003.34,VALID,0,VALID,94.7354,VALID,0,VALID,22.7677,VALID,4,VALID,0.996484,
2009-05-21, 02:04:04,VALID,1003.34,VALID,0,VALID,94.7049,VALID,0,VALID,22.7482,VALID,359,VALID,0.521875,
2009-05-21, 02:05:04,VALID,1003.32,VALID,0,VALID,94.7812,VALID,0,VALID,22.7677,VALID,359,VALID,0.173438,
2009-05-21, 02:06:04,VALID,1003.36,VALID,0,VALID,94.7431,VALID,0.100563,VALID,22.7677,VALID,353,VALID,0.485156,
2009-05-21, 02:07:04,VALID,1003.34,VALID,0,VALID,94.7583,VALID,0,VALID,22.7677,VALID,344,VALID,0.184375,
2009-05-21, 02:08:04,VALID,1003.32,VALID,0,VALID,94.7812,VALID,0,VALID,22.7677,VALID,350,VALID,0.353125,
2009-05-21, 02:09:04,VALID,1003.3,VALID,0,VALID,94.7812,VALID,0,VALID,22.7677,VALID,239,VALID,0.223047,
2009-05-21, 02:10:04,VALID,1003.33,VALID,0,VALID,94.7583,VALID,0.100563,VALID,22.7482,VALID,240,VALID,0.298047,
2009-05-21, 02:11:04,VALID,1003.34,VALID,0,VALID,94.7507,VALID,0.100563,VALID,22.7677,VALID,9,VALID,0.648828,
2009-05-21, 02:12:04,VALID,1003.35,VALID,0,VALID,94.7354,VALID,0.100563,VALID,22.7482,VALID,299,VALID,0.334375,
2009-05-21, 02:13:04,VALID,1003.35,VALID,0,VALID,94.682,VALID,0.100563,VALID,22.727,VALID,289,VALID,0.539063,
2009-05-21, 02:14:04,VALID,1003.33,VALID,0,VALID,94.7507,VALID,0,VALID,22.7287,VALID,242,VALID,0.307031,
2009-05-21, 02:15:04,VALID,1003.34,VALID,0,VALID,94.7812,VALID,0,VALID,22.7287,VALID,317,VALID,0.255859,
2009-05-21, 02:16:04,VALID,1003.31,VALID,0,VALID,94.7888,VALID,0,VALID,22.7093,VALID,308,VALID,0.253125,
2009-05-21, 02:17:04,VALID,1003.31,VALID,0,VALID,94.827,VALID,0.100563,VALID,22.7287,VALID,308,VALID,0.273047,
2009-05-21, 02:18:04,VALID,1003.31,VALID,0,VALID,94.7965,VALID,0.100563,VALID,22.7287,VALID,310,VALID,0.436328,
2009-05-21, 02:19:04,VALID,1003.31,VALID,0,VALID,94.8194,VALID,0,VALID,22.7093,VALID,316,VALID,0.439453,
2009-05-21, 02:20:04,VALID,1003.3,VALID,0,VALID,94.8651,VALID,0,VALID,22.6881,VALID,337,VALID,0.551172,
2009-05-21, 02:21:04,VALID,1003.28,VALID,0,VALID,94.8651,VALID,0.100563,VALID,22.7287,VALID,348,VALID,0.317969,
2009-05-21, 02:22:04,VALID,1003.28,VALID,0,VALID,94.8651,VALID,0.100563,VALID,22.7482,VALID,350,VALID,0.801172,
2009-05-21, 02:23:04,VALID,1003.26,VALID,0,VALID,94.8499,VALID,0,VALID,22.727,VALID,360,VALID,0.407031,
2009-05-21, 02:24:04,VALID,1003.25,VALID,0,VALID,94.8728,VALID,0,VALID,22.7482,VALID,1,VALID,0.255078,
2009-05-21, 02:25:04,VALID,1003.28,VALID,0,VALID,94.827,VALID,0,VALID,22.7499,VALID,285,VALID,0.976953,
2009-05-21, 02:26:04,VALID,1003.25,VALID,0,VALID,94.8499,VALID,0,VALID,22.7287,VALID,307,VALID,0.419141,
2009-05-21, 02:27:04,VALID,1003.21,VALID,0,VALID,94.8804,VALID,0.100563,VALID,22.7482,VALID,328,VALID,0.306641,
2009-05-21, 02:28:04,VALID,1003.22,VALID,0,VALID,94.8956,VALID,0.100563,VALID,22.7482,VALID,350,VALID,0.424219,
2009-05-21, 02:29:04,VALID,1003.2,VALID,0,VALID,94.9185,VALID,0.100563,VALID,22.7482,VALID,352,VALID,0.179297,
2009-05-21, 02:30:04,VALID,1003.17,VALID,0,VALID,94.888,VALID,0.100563,VALID,22.7677,VALID,336,VALID,0.292578,
2009-05-21, 02:31:04,VALID,1003.18,VALID,0,VALID,94.9185,VALID,0.100563,VALID,22.7677,VALID,291,VALID,0.899219,
2009-05-21, 02:32:04,VALID,1003.15,VALID,0,VALID,94.9109,VALID,0,VALID,22.7871,VALID,358,VALID,0.706641,
2009-05-21, 02:33:04,VALID,1003.16,VALID,0,VALID,94.9185,VALID,0.100563,VALID,22.7871,VALID,7,VALID,0.240234,
2009-05-21, 02:34:04,VALID,1003.15,VALID,0,VALID,94.9567,VALID,0.100563,VALID,22.7854,VALID,1,VALID,0.157422,
2009-05-21, 02:35:04,VALID,1003.11,VALID,0,VALID,94.9567,VALID,0,VALID,22.826,VALID,317,VALID,0.272656,
2009-05-21, 02:36:04,VALID,1003.11,VALID,0,VALID,94.9414,VALID,0,VALID,22.8455,VALID,268,VALID,0.0921875,
2009-05-21, 02:37:04,VALID,1003.12,VALID,0,VALID,94.9414,VALID,0,VALID,22.8455,VALID,311,VALID,0.338672,
2009-05-21, 02:38:04,VALID,1003.09,VALID,0,VALID,94.9338,VALID,0,VALID,22.8649,VALID,307,VALID,0.175,
2009-05-21, 02:39:04,VALID,1003.09,VALID,0,VALID,94.9414,VALID,0,VALID,22.8844,VALID,283,VALID,0.469531,
2009-05-21, 02:40:04,VALID,1003.09,VALID,0,VALID,94.9414,VALID,0.100563,VALID,22.8844,VALID,286,VALID,1.00469,
2009-05-21, 02:41:04,VALID,1003.06,VALID,0,VALID,94.9185,VALID,0.100563,VALID,22.8649,VALID,275,VALID,1.09102,
2009-05-21, 02:42:04,VALID,1003.05,VALID,0,VALID,94.9262,VALID,0,VALID,22.8649,VALID,281,VALID,0.904297,
2009-05-21, 02:43:04,VALID,1003.03,VALID,0,VALID,94.9109,VALID,0,VALID,22.8861,VALID,297,VALID,0.428125,
2009-05-21, 02:44:04,VALID,1003.06,VALID,0,VALID,94.9414,VALID,0.100563,VALID,22.8844,VALID,290,VALID,0.882422,
2009-05-21, 02:45:04,VALID,1003.04,VALID,0,VALID,94.9338,VALID,0,VALID,22.8844,VALID,289,VALID,0.508203,
2009-05-21, 02:46:04,VALID,1003.04,VALID,0,VALID,94.949,VALID,0,VALID,22.9039,VALID,291,VALID,0.815625,
2009-05-21, 02:47:04,VALID,1003.01,VALID,0,VALID,94.9414,VALID,0,VALID,22.9039,VALID,319,VALID,0.313672,
2009-05-21, 02:48:04,VALID,1002.98,VALID,0,VALID,94.9414,VALID,0,VALID,22.9039,VALID,319,VALID,0.330078,
2009-05-21, 02:49:04,VALID,1002.99,VALID,0,VALID,94.9643,VALID,0,VALID,22.9445,VALID,318,VALID,0.115234,
2009-05-21, 02:50:04,VALID,1002.98,VALID,0,VALID,94.949,VALID,0.100563,VALID,22.9463,VALID,318,VALID,0.216016,
2009-05-21, 02:51:04,VALID,1002.97,VALID,0,VALID,94.9338,VALID,0,VALID,22.9251,VALID,318,VALID,0.00117188,
2009-05-21, 02:52:04,VALID,1002.98,VALID,0,VALID,94.9643,VALID,0,VALID,22.9021,VALID,318,VALID,0.158594,
2009-05-21, 02:53:04,VALID,1002.96,VALID,0,VALID,94.9872,VALID,0,VALID,22.9622,VALID,318,VALID,0.172266,
2009-05-21, 02:54:04,VALID,1002.97,VALID,0,VALID,94.9872,VALID,0,VALID,22.9428,VALID,318,VALID,0.160938,
2009-05-21, 02:55:04,VALID,1002.92,VALID,0,VALID,94.9872,VALID,0,VALID,22.9622,VALID,318,VALID,0.187109,
2009-05-21, 02:56:04,VALID,1002.93,VALID,0,VALID,94.9948,VALID,0,VALID,22.9622,VALID,318,VALID,0,
2009-05-21, 02:57:04,VALID,1002.93,VALID,0,VALID,95.0253,VALID,0,VALID,22.9605,VALID,323,VALID,0.278906,
2009-05-21, 02:58:04,VALID,1002.92,VALID,0.5,VALID,95.033,VALID,0,VALID,23.0206,VALID,323,VALID,0.379297,
2009-05-21, 02:59:04,VALID,1002.9,VALID,0,VALID,95.0482,VALID,0,VALID,23.0401,VALID,295,VALID,0.244141,
2009-05-21, 03:00:04,VALID,1002.91,VALID,0,VALID,95.0635,VALID,0,VALID,23.0807,VALID,300,VALID,0.555078,
2009-05-21, 03:01:04,VALID,1002.88,VALID,0,VALID,95.0482,VALID,0,VALID,23.0613,VALID,293,VALID,0.546484,
2009-05-21, 03:02:04,VALID,1002.89,VALID,0,VALID,95.0635,VALID,0,VALID,23.079,VALID,309,VALID,0.273828,
2009-05-21, 03:03:04,VALID,1002.89,VALID,0,VALID,95.0787,VALID,0,VALID,23.1197,VALID,340,VALID,0.376563,
2009-05-21, 03:04:04,VALID,1002.89,VALID,0,VALID,95.0558,VALID,0,VALID,23.1179,VALID,310,VALID,0.928516,
2009-05-21, 03:05:04,VALID,1002.9,VALID,0,VALID,95.0787,VALID,0,VALID,23.1391,VALID,259,VALID,0.770312,
2009-05-21, 03:06:04,VALID,1002.88,VALID,0,VALID,95.0711,VALID,0,VALID,23.1374,VALID,275,VALID,0.766016,
2009-05-21, 03:07:04,VALID,1002.91,VALID,0,VALID,95.0635,VALID,0,VALID,23.1374,VALID,286,VALID,0.625391,
2009-05-21, 03:08:04,VALID,1002.9,VALID,0,VALID,95.033,VALID,0,VALID,23.1568,VALID,279,VALID,0.363672,
2009-05-21, 03:09:04,VALID,1002.92,VALID,0,VALID,95.0177,VALID,0,VALID,23.178,VALID,297,VALID,0.592188,
2009-05-21, 03:10:04,VALID,1002.94,VALID,0,VALID,95.033,VALID,0,VALID,23.1975,VALID,335,VALID,0.272266,
2009-05-21, 03:11:04,VALID,1002.93,VALID,0,VALID,95.0406,VALID,0,VALID,23.1763,VALID,302,VALID,0.689062,
2009-05-21, 03:12:04,VALID,1002.92,VALID,0,VALID,95.0177,VALID,0,VALID,23.1957,VALID,295,VALID,0.795313,
2009-05-21, 03:13:04,VALID,1002.9,VALID,0,VALID,95.0177,VALID,0,VALID,23.1763,VALID,336,VALID,0.261328,
2009-05-21, 03:14:04,VALID,1002.89,VALID,0,VALID,95.0024,VALID,0,VALID,23.1957,VALID,326,VALID,0.410156,
2009-05-21, 03:15:04,VALID,1002.88,VALID,0,VALID,94.9872,VALID,0,VALID,23.1957,VALID,303,VALID,0.819531,
2009-05-21, 03:16:04,VALID,1002.89,VALID,0,VALID,94.9796,VALID,0,VALID,23.1957,VALID,352,VALID,0.741406,
2009-05-21, 03:17:04,VALID,1002.84,VALID,0,VALID,94.9643,VALID,0,VALID,23.178,VALID,325,VALID,0.448438,
2009-05-21, 03:18:04,VALID,1002.85,VALID,0,VALID,94.9262,VALID,0,VALID,23.1763,VALID,11,VALID,0.509375,
2009-05-21, 03:19:04,VALID,1002.85,VALID,0,VALID,94.9567,VALID,0,VALID,23.1763,VALID,283,VALID,0.635547,
2009-05-21, 03:20:04,VALID,1002.87,VALID,0,VALID,94.9643,VALID,0,VALID,23.1957,VALID,286,VALID,0.258984,
2009-05-21, 03:21:04,VALID,1002.87,VALID,0,VALID,95.0024,VALID,0.100563,VALID,23.1763,VALID,323,VALID,0.562109,
2009-05-21, 03:22:04,VALID,1002.91,VALID,0,VALID,94.9262,VALID,0,VALID,23.1957,VALID,264,VALID,1.1082,
2009-05-21, 03:23:04,VALID,1002.92,VALID,0,VALID,94.9262,VALID,0.100563,VALID,23.217,VALID,268,VALID,0.444922,
2009-05-21, 03:24:04,VALID,1002.95,VALID,0.5,VALID,94.9643,VALID,0.100563,VALID,23.2347,VALID,268,VALID,0.338281,
2009-05-21, 03:25:04,VALID,1002.94,VALID,0,VALID,94.9414,VALID,0,VALID,23.2364,VALID,299,VALID,0.302734,
2009-05-21, 03:26:04,VALID,1002.97,VALID,0,VALID,94.9414,VALID,0,VALID,23.2364,VALID,282,VALID,1.57852,
2009-05-21, 03:27:04,VALID,1002.95,VALID,0,VALID,94.8956,VALID,0,VALID,23.2152,VALID,311,VALID,0.652344,
2009-05-21, 03:28:04,VALID,1003,VALID,0,VALID,94.8804,VALID,0,VALID,23.2347,VALID,326,VALID,0.611719,
2009-05-21, 03:29:04,VALID,1003.01,VALID,0,VALID,94.8422,VALID,0.100563,VALID,23.2541,VALID,300,VALID,0.469922,
2009-05-21, 03:30:04,VALID,1002.99,VALID,0,VALID,94.8346,VALID,0.100563,VALID,23.2347,VALID,9,VALID,0.436719,
2009-05-21, 03:31:04,VALID,1003.03,VALID,0,VALID,94.7431,VALID,0,VALID,23.2541,VALID,306,VALID,0.837891,
2009-05-21, 03:32:04,VALID,1003.02,VALID,0,VALID,94.7354,VALID,0,VALID,23.2754,VALID,299,VALID,1.12891,
2009-05-21, 03:33:04,VALID,1003.03,VALID,0,VALID,94.6973,VALID,0,VALID,23.2541,VALID,339,VALID,0.498437,
2009-05-21, 03:34:04,VALID,1003.03,VALID,0,VALID,94.6744,VALID,0,VALID,23.2931,VALID,327,VALID,0.508203,
2009-05-21, 03:35:04,VALID,1003.05,VALID,0,VALID,94.6744,VALID,0,VALID,23.3143,VALID,237,VALID,0.21875,
2009-05-21, 03:36:04,VALID,1003.07,VALID,0,VALID,94.621,VALID,0,VALID,23.2931,VALID,313,VALID,0.795313,
2009-05-21, 03:37:04,VALID,1003.06,VALID,0,VALID,94.621,VALID,0.100563,VALID,23.2718,VALID,277,VALID,0.827734,
2009-05-21, 03:38:04,VALID,1003.07,VALID,0,VALID,94.6134,VALID,0.100563,VALID,23.3125,VALID,276,VALID,0.378516,
2009-05-21, 03:39:04,VALID,1003.09,VALID,0,VALID,94.5142,VALID,0,VALID,23.332,VALID,283,VALID,0.440234,
2009-05-21, 03:40:04,VALID,1003.09,VALID,0,VALID,94.4989,VALID,0,VALID,23.3107,VALID,296,VALID,0.326953,
2009-05-21, 03:41:04,VALID,1003.1,VALID,0,VALID,94.4913,VALID,0,VALID,23.3125,VALID,296,VALID,0,